Cosmos 2034 Rocket - Orbit

View from above orbital plane
View from above orbital plane
View from above satellite
View from above satellite

Ground track
Ground track

The orbit data is extracted from the following two-line orbital elements,

1 20150U 89059B   13168.39048714  .00000040  00000-0  25850-4 0  7923
2 20150 082.9409 097.7575 0029756 043.7609 106.1667 13.75523673199558
Epoch (UTC): 17 June 2013 09:22:18
Eccentricity: 0.0029756
inclination: 82.9409°
perigee height: 958 km
apogee height: 1002 km
right ascension of ascending node: 97.7575°
argument of perigee: 43.7609°
revolutions per day: 13.75523673
mean anomaly at epoch: 106.1667°
orbit number at epoch: 19955

The dashed part of the orbit path shows where the satellite is in the earth's shadow,  

Developed and maintained by Chris Peat, Heavens-Above GmbH. Please read the updated FAQ before sending e-mail. Imprint. DLR